Time,TemperatureF,DewpointF,PressureIn,WindDirection,WindDirectionDegrees,WindSpeedMPH,WindSpeedGustMPH,Humidity,HourlyPrecipIn,Conditions,Clouds,dailyrainin,SoftwareType,DateUTC
2013-06-27 00:23:00,51.0,-99.9,-100.00,North,-999,-999.0,-999.0,-999,0.00,,,0.12,,2013-06-27 06:23:00,
2013-06-27 00:34:00,51.0,-99.9,-100.00,North,-999,-999.0,-999.0,-999,0.00,,,0.12,,2013-06-27 06:34:00,
2013-06-27 00:43:00,51.0,-99.9,-100.00,North,-999,-999.0,-999.0,-999,0.00,,,0.12,,2013-06-27 06:43:00,
2013-06-27 01:22:00,49.0,-99.9,-100.00,North,-999,-999.0,-999.0,-999,-99.99,,,0.11,,2013-06-27 07:22:00,
2013-06-27 01:34:00,49.0,-99.9,-100.00,North,-999,-999.0,-999.0,-999,-99.99,,,0.11,,2013-06-27 07:34:00,
2013-06-27 01:43:00,49.0,-99.9,-100.00,North,-999,-999.0,-999.0,-999,-99.99,,,0.11,,2013-06-27 07:43:00,
2013-06-27 02:22:00,48.0,-99.9,-100.00,North,-999,-999.0,-999.0,-999,0.00,,,0.09,,2013-06-27 08:22:00,
2013-06-27 02:34:00,48.0,-99.9,-100.00,North,-999,-999.0,-999.0,-999,0.00,,,0.09,,2013-06-27 08:34:00,
2013-06-27 02:44:00,48.0,-99.9,-100.00,North,-999,-999.0,-999.0,-999,0.00,,,0.09,,2013-06-27 08:44:00,
2013-06-27 03:34:00,46.0,-99.9,-100.00,North,-999,-999.0,-999.0,-999,0.01,,,0.08,,2013-06-27 09:34:00,
2013-06-27 03:43:00,46.0,-99.9,-100.00,North,-999,-999.0,-999.0,-999,0.01,,,0.08,,2013-06-27 09:43:00,
2013-06-27 04:32:00,46.0,-99.9,-100.00,North,-999,-999.0,-999.0,-999,0.01,,,0.06,,2013-06-27 10:32:00,
2013-06-27 04:44:00,46.0,-99.9,-100.00,North,-999,-999.0,-999.0,-999,0.01,,,0.06,,2013-06-27 10:44:00,
2013-06-27 05:22:00,45.0,-99.9,-100.00,North,-999,-999.0,-999.0,-999,-99.99,,,0.03,,2013-06-27 11:22:00,
2013-06-27 05:33:00,45.0,-99.9,-100.00,North,-999,-999.0,-999.0,-999,-99.99,,,0.03,,2013-06-27 11:33:00,
2013-06-27 05:43:00,45.0,-99.9,-100.00,North,-999,-999.0,-999.0,-999,-99.99,,,0.03,,2013-06-27 11:43:00,
2013-06-27 06:22:00,43.0,-99.9,-100.00,North,-999,-999.0,-999.0,-999,0.01,,,0.03,,2013-06-27 12:22:00,
2013-06-27 06:34:00,43.0,-99.9,-100.00,North,-999,-999.0,-999.0,-999,0.01,,,0.03,,2013-06-27 12:34:00,
2013-06-27 06:42:00,43.0,-99.9,-100.00,North,-999,-999.0,-999.0,-999,0.01,,,0.03,,2013-06-27 12:42:00,
2013-06-27 07:11:00,43.0,-99.9,-100.00,North,-999,-999.0,-999.0,-999,0.01,,,-99.99,,2013-06-27 13:11:00,
2013-06-27 07:34:00,43.0,-99.9,-100.00,North,-999,-999.0,-999.0,-999,0.01,,,-99.99,,2013-06-27 13:34:00,
2013-06-27 07:43:00,43.0,-99.9,-100.00,North,-999,-999.0,-999.0,-999,0.01,,,-99.99,,2013-06-27 13:43:00,
2013-06-27 08:22:00,48.0,-99.9,-100.00,North,-999,-999.0,-999.0,-999,0.00,,,0.04,,2013-06-27 14:22:00,
2013-06-27 08:33:00,48.0,-99.9,-100.00,North,-999,-999.0,-999.0,-999,0.00,,,0.04,,2013-06-27 14:33:00,
2013-06-27 08:43:00,48.0,-99.9,-100.00,North,-999,-999.0,-999.0,-999,0.00,,,0.04,,2013-06-27 14:43:00,
2013-06-27 09:22:00,55.0,-99.9,-100.00,North,-999,-999.0,-999.0,-999,0.00,,,-99.99,,2013-06-27 15:22:00,
2013-06-27 09:33:00,55.0,-99.9,-100.00,North,-999,-999.0,-999.0,-999,0.00,,,-99.99,,2013-06-27 15:33:00,
2013-06-27 09:42:00,55.0,-99.9,-100.00,North,-999,-999.0,-999.0,-999,0.00,,,-99.99,,2013-06-27 15:42:00,
2013-06-27 10:24:00,65.0,-99.9,-100.00,North,-999,-999.0,-999.0,-999,0.00,,,0.03,,2013-06-27 16:24:00,
2013-06-27 10:34:00,65.0,-99.9,-100.00,North,-999,-999.0,-999.0,-999,0.00,,,0.03,,2013-06-27 16:34:00,
2013-06-27 10:43:00,65.0,-99.9,-100.00,North,-999,-999.0,-999.0,-999,0.00,,,0.03,,2013-06-27 16:43:00,
2013-06-27 11:33:00,75.0,-99.9,-100.00,North,-999,-999.0,-999.0,-999,0.00,,,0.03,,2013-06-27 17:33:00,
2013-06-27 11:43:00,75.0,-99.9,-100.00,North,-999,-999.0,-999.0,-999,0.00,,,0.03,,2013-06-27 17:43:00,
2013-06-27 13:34:00,79.0,-99.9,-100.00,North,-999,-999.0,-999.0,-999,0.00,,,0.02,,2013-06-27 19:34:00,
2013-06-27 13:43:00,79.0,-99.9,-100.00,North,-999,-999.0,-999.0,-999,0.00,,,0.02,,2013-06-27 19:43:00,
2013-06-27 13:45:00,81.0,-99.9,-100.00,North,-999,-999.0,-999.0,-999,0.00,,,0.02,,2013-06-27 19:45:00,
2013-06-27 14:22:00,81.0,-99.9,-100.00,North,-999,-999.0,-999.0,-999,0.00,,,0.02,,2013-06-27 20:22:00,
2013-06-27 14:41:00,81.0,-99.9,-100.00,North,-999,-999.0,-999.0,-999,0.00,,,0.02,,2013-06-27 20:41:00,
2013-06-27 14:45:00,83.0,-99.9,-100.00,North,-999,-999.0,-999.0,-999,0.01,,,-99.99,,2013-06-27 20:45:00,
2013-06-27 15:26:00,83.0,-99.9,-100.00,North,-999,-999.0,-999.0,-999,0.01,,,-99.99,,2013-06-27 21:26:00,
2013-06-27 15:37:00,83.0,-99.9,-100.00,North,-999,-999.0,-999.0,-999,0.01,,,-99.99,,2013-06-27 21:37:00,
2013-06-27 15:45:00,84.0,-99.9,-100.00,North,-999,-999.0,-999.0,-999,0.00,,,0.03,,2013-06-27 21:45:00,
2013-06-27 16:26:00,84.0,-99.9,-100.00,North,-999,-999.0,-999.0,-999,0.00,,,0.03,,2013-06-27 22:26:00,
2013-06-27 16:36:00,84.0,-99.9,-100.00,North,-999,-999.0,-999.0,-999,0.00,,,0.03,,2013-06-27 22:36:00,
2013-06-27 16:45:00,86.0,-99.9,-100.00,North,-999,-999.0,-999.0,-999,-99.99,,,-99.99,,2013-06-27 22:45:00,
2013-06-27 17:37:00,86.0,-99.9,-100.00,North,-999,-999.0,-999.0,-999,-99.99,,,-99.99,,2013-06-27 23:37:00,
2013-06-27 17:45:00,86.0,-99.9,-100.00,North,-999,-999.0,-999.0,-999,0.00,,,-99.99,,2013-06-27 23:45:00,
2013-06-27 18:32:00,86.0,-99.9,-100.00,North,-999,-999.0,-999.0,-999,0.00,,,-99.99,,2013-06-28 00:32:00,
2013-06-27 18:39:00,86.0,-99.9,-100.00,North,-999,-999.0,-999.0,-999,0.00,,,-99.99,,2013-06-28 00:39:00,
2013-06-27 18:45:00,85.0,-99.9,-100.00,North,-999,-999.0,-999.0,-999,-99.99,,,0.01,,2013-06-28 00:45:00,
2013-06-27 20:39:00,79.0,-99.9,-100.00,North,-999,-999.0,-999.0,-999,-99.99,,,-99.99,,2013-06-28 02:39:00,
2013-06-27 20:45:00,67.0,-99.9,-100.00,North,-999,-999.0,-999.0,-999,0.00,,,-99.99,,2013-06-28 02:45:00,
2013-06-27 22:33:00,58.0,-99.9,-100.00,North,-999,-999.0,-999.0,-999,0.00,,,-99.99,,2013-06-28 04:33:00,
2013-06-27 22:43:00,58.0,-99.9,-100.00,North,-999,-999.0,-999.0,-999,0.00,,,-99.99,,2013-06-28 04:43:00,
2013-06-27 23:33:00,54.0,-99.9,-100.00,North,-999,-999.0,-999.0,-999,0.00,,,0.00,,2013-06-28 05:33:00,
2013-06-27 23:43:00,54.0,-99.9,-100.00,North,-999,-999.0,-999.0,-999,0.00,,,0.00,,2013-06-28 05:43:00,